West Tisbury, MA

12:52 PM EST on February 12, 2016 (GMT -0500)
Martha's Vineyard

Weather History for KMVY - November, 2012

Change the Weather History Date:

Friday, November 9, 2012

  Actual Average (WUND) Record (WUND)
Temperature  
Mean Temperature 44 °F -  
Max Temperature 53 °F - - (-1)
Min Temperature 36 °F - - (-1)
Degree Days  
Heating Degree Days 20    
Moisture  
Dew Point 31 °F    
Average Humidity 64    
Maximum Humidity 89    
Minimum Humidity 35    
Precipitation  
Precipitation 0.00 in - - ()
Sea Level Pressure  
Sea Level Pressure 29.89 in    
Wind  
Wind Speed 15 mph (NW)    
Max Wind Speed 21 mph    
Max Gust Speed 32 mph    
Visibility 10 miles    
Events      
Averages and records for this station are not official NWS values.
T = Trace of Precipitation, MM = Missing Value Source: NWS Daily Summary

Daily Weather History Graph

Daily Weather History Graph

Search for Another Location

Airport or City:

Trip Planner

Search our weather history database for the weather conditions in past years. The results will help you decide how hot, cold, wet, or windy it might be!

Date:

Astronomy

Nov. 09, 2012 Rise Set
Actual Time 6:24 AM EST 4:27 PM EST
Civil Twilight 5:54 AM EST 4:57 PM EST
Nautical Twilight 5:21 AM EST 5:30 PM EST
Astronomical Twilight 4:49 AM EST 6:02 PM EST
Moon 1:16 AM EST (11/9) 1:42 PM EST (11/9)
Length of Visible Light 11h 02m
Length of Day
10h 03m
Waning Crescent, 23% of the Moon is Illuminated
Nov 9
Waning Crescent
Nov 13
New
Nov 20
First Quarter
Nov 28
Full
Dec 6
Last Quarter

Hourly Weather History & Observations

Time (EST) Temp. Windchill Dew Point Humidity Pressure Visibility Wind Dir Wind Speed Gust Speed Precip Events Conditions
12:53 AM 39.9 °F 30.2 °F 37.0 °F 89% 29.70 in 10.0 mi NNW 20.7 mph 29.9 mph N/A   Overcast
1:11 AM 39.2 °F 30.5 °F 35.6 °F 87% 29.70 in 10.0 mi NNW 16.1 mph 29.9 mph N/A   Overcast
1:53 AM 41.0 °F 31.9 °F 35.1 °F 79% 29.72 in 10.0 mi NNW 19.6 mph 32.2 mph N/A   Overcast
2:53 AM 41.0 °F 31.6 °F 35.1 °F 79% 29.73 in 10.0 mi NNW 20.7 mph 26.5 mph N/A   Overcast
3:53 AM 41.0 °F 32.8 °F 34.0 °F 76% 29.76 in 10.0 mi NNW 16.1 mph 19.6 mph N/A   Overcast
4:33 AM 39.2 °F 30.5 °F 33.8 °F 81% 29.77 in 10.0 mi NNW 16.1 mph 20.7 mph N/A   Scattered Clouds
4:53 AM 39.9 °F 32.1 °F 33.1 °F 77% 29.78 in 10.0 mi NNW 13.8 mph 20.7 mph N/A   Clear
5:49 AM 39.2 °F 30.8 °F 32.0 °F 75% 29.80 in 10.0 mi NNW 15.0 mph - N/A   Mostly Cloudy
5:53 AM 39.0 °F 30.6 °F 32.0 °F 76% 29.81 in 10.0 mi NNW 15.0 mph - N/A   Mostly Cloudy
6:04 AM 39.2 °F 31.6 °F 32.0 °F 75% 29.80 in 10.0 mi NNW 12.7 mph 21.9 mph N/A   Scattered Clouds
6:53 AM 39.0 °F 30.3 °F 32.0 °F 76% 29.83 in 10.0 mi NNW 16.1 mph 21.9 mph N/A   Mostly Cloudy
7:53 AM 39.9 °F 30.8 °F 32.0 °F 73% 29.86 in 10.0 mi NNW 18.4 mph 29.9 mph N/A   Clear
8:53 AM 43.0 °F 34.2 °F 32.0 °F 65% 29.88 in 10.0 mi NNW 20.7 mph 29.9 mph N/A   Clear
9:53 AM 46.0 °F 40.2 °F 33.1 °F 61% 29.88 in 10.0 mi NNW 12.7 mph - N/A   Clear
10:53 AM 48.0 °F - 33.1 °F 56% 29.90 in 10.0 mi NNW 16.1 mph 21.9 mph N/A   Clear
11:53 AM 48.9 °F - 32.0 °F 52% 29.91 in 10.0 mi NNW 13.8 mph - N/A   Clear
12:53 PM 51.1 °F - 32.0 °F 48% 29.92 in 10.0 mi NW 15.0 mph 19.6 mph N/A   Clear
1:53 PM 52.0 °F - 30.9 °F 45% 29.92 in 10.0 mi North 12.7 mph - N/A   Clear
2:53 PM 53.1 °F - 26.1 °F 35% 29.94 in 10.0 mi NNW 12.7 mph - N/A   Clear
3:53 PM 51.1 °F - 26.1 °F 38% 29.95 in 10.0 mi NW 5.8 mph - N/A   Clear
4:53 PM 46.9 °F - 28.0 °F 48% 29.98 in 10.0 mi WNW 3.5 mph - N/A   Clear
5:53 PM 37.9 °F 34.4 °F 28.9 °F 70% 30.02 in 10.0 mi WNW 4.6 mph - N/A   Clear
6:53 PM 46.0 °F 41.9 °F 26.1 °F 46% 30.04 in 10.0 mi NW 8.1 mph - N/A   Clear
7:53 PM 46.9 °F - 26.1 °F 44% 30.06 in 10.0 mi NW 10.4 mph - N/A   Clear
8:53 PM 46.0 °F 39.9 °F 26.1 °F 46% 30.08 in 10.0 mi NNW 13.8 mph - N/A   Clear
9:53 PM 43.0 °F 41.3 °F 26.1 °F 51% 30.10 in 10.0 mi WNW 3.5 mph - N/A   Clear
10:53 PM 36.0 °F - 27.0 °F 70% 30.10 in 10.0 mi Calm Calm - N/A   Clear
11:53 PM 37.9 °F 35.5 °F 28.0 °F 68% 30.12 in 10.0 mi SW 3.5 mph - N/A   Clear